[[{"header":{"parameterUnit":"m.s-1","parameterCategory":1,"la1":30.2991,"la2":30.254,"lo1":-89.0895,"lo2":-89.0444,"dy":0.0017,"dx":0.0017,"nx":28,"ny":28,"refTime":"2023-11-21T09:00:00:Z","depth":0,"parameterNumber":2,"parameterNumberName":"U-component_of_WINDS"},"data":[0,0,0,0,0,0,0,0,0,0,0,0,0,0,0,0,0,0,0,0,0,0,0,0,0,0,0,0,0,0,0,0,0,0,0,0,0,0,0,0,0,0,0,0,0,0,0,0,0,0,0,0,0,0,0,0,0,0,4.0899,4.09,0,4.0965,4.0966,4.0967,4.0927,4.0926,4.0924,4.0922,4.0988,4.0992,4.0995,0,0,0,0,0,0,0,0,0,0,0,0,0,4.0739,4.0742,4.0899,4.09,4.09,4.0965,4.0966,4.0967,4.0928,4.0925,4.0923,4.0921,4.0987,4.0991,4.0995,0,0,0,0,0,0,0,0,0,0,0,0,0,4.0807,4.0743,4.0899,4.0889,4.0889,4.0965,4.0966,4.0967,4.0928,4.0925,4.0923,4.092,4.0986,4.0991,4.0996,4.1085,0,0,4.1012,4.1014,0,0,0,0,0,0,0,0,4.0803,4.0813,4.0889,4.089,4.0889,4.0935,4.0934,4.1007,4.0929,4.0913,4.0922,4.0919,4.0973,4.0979,4.0997,4.1088,4.1091,4.1013,4.1016,4.1018,4.102,0,0,0,0,0,0,0,4.0798,4.081,4.0925,4.0891,4.0891,4.0881,4.0888,4.0947,4.0958,4.0914,4.0912,4.092,4.0972,4.0992,4.0999,4.1092,4.1012,4.1017,4.102,4.1022,4.1262,4.1265,0,0,0,0,0,0,4.0795,4.0806,4.0923,4.0927,4.0839,4.0886,4.0894,4.0923,4.0957,4.096,4.0922,4.0918,4.0985,4.0993,4.1001,4.1109,4.1018,4.1023,4.1026,4.1259,4.1263,4.1266,0,0,0,0,0,0,4.0791,4.0805,4.092,4.0866,4.088,4.0892,4.0926,4.0926,4.0946,4.0963,4.0965,4.0941,4.0983,4.0993,4.1065,4.1111,4.1025,4.103,4.1255,4.126,4.1264,4.1325,0,0,0,0,0,0,4.0787,4.0804,4.0838,4.0867,4.0883,4.0983,4.0928,4.0929,4.0956,4.0951,4.0981,4.0984,4.0981,4.1058,4.107,4.1116,4.1034,4.1251,4.1257,4.1263,4.1319,4.1331,4.1342,0,0,0,0,0,4.0781,4.0852,4.084,4.0854,4.0925,4.0986,4.0995,4.0991,4.0959,4.0994,4.1005,4.0983,4.1104,4.1065,4.1079,4.1128,4.1248,4.1255,4.1262,4.1314,4.1329,4.1341,0,0,0,0,0,0,4.0826,4.0855,4.0842,4.0924,4.0953,4.0979,4.1022,4.1007,4.1045,4.1039,4.1032,4.104,4.1115,4.1128,4.1085,4.1217,4.1171,4.1181,4.1205,4.1219,4.1231,4.1226,4.1039,0,0,0,0,0,4.0846,4.0893,4.0916,4.0986,4.1001,4.1009,4.1036,4.1031,4.106,4.1072,4.1088,4.1117,4.1162,4.1192,4.1233,4.1321,4.1328,4.1361,4.1373,4.1382,4.1391,4.144,4.1456,4.129,4.129,4.1289,0,0,4.0887,4.0908,4.0938,4.0995,4.1017,4.1066,4.102,4.1073,4.111,4.108,4.1149,4.1162,4.1195,4.1275,4.1311,4.1289,4.1439,4.1391,4.1398,4.1402,4.1449,4.1465,4.1479,4.1294,4.1294,4.1293,0,0,4.0986,4.1007,4.1068,4.1092,4.1126,4.1132,4.1147,4.1176,4.1184,4.1254,4.1233,4.1276,4.1353,4.1378,4.14,4.1512,4.1494,4.1526,4.1585,4.1633,4.1647,4.1658,4.1699,4.1714,4.1535,4.1535,4.1535,0,4.1032,4.1106,4.1102,4.1158,4.1184,4.1161,4.1224,4.1247,4.1292,4.1311,4.1286,4.1383,4.1403,4.149,4.1518,4.1537,4.1554,4.1522,4.1645,4.1657,4.1667,4.1706,4.1722,4.1539,4.1539,4.1538,4.1538,0,4.1161,4.1213,4.1258,4.1305,4.1337,4.1396,4.1401,4.1434,4.1427,4.1436,4.1508,4.1532,4.1579,4.1599,4.1592,4.1686,4.1671,4.1646,4.1599,4.1687,4.1724,4.1739,4.1545,4.1543,4.1542,4.1541,0,0,4.1289,4.1335,4.1352,4.1373,4.1411,4.1451,4.151,4.1557,4.1585,4.1619,4.1668,4.1735,4.1713,4.1739,4.1734,4.1777,4.1866,4.1746,4.1747,4.1768,4.1972,4.1991,4.2009,4.1854,4.1857,4.1859,4.197,0,4.1391,4.1494,4.1494,4.159,4.1638,4.1618,4.167,4.1698,4.1709,4.1751,4.1762,4.1811,4.1777,4.1792,4.1833,4.1846,4.1907,4.1838,4.1901,4.1903,4.1893,4.2028,4.2047,4.215,4.1984,4.1986,4.1988,0,4.1524,4.1563,4.1664,4.1697,4.1717,4.1763,4.1808,4.1849,4.1882,4.1886,4.1917,4.1907,4.1968,4.1921,4.2005,4.1958,4.1984,4.1995,4.1999,4.2004,4.195,4.2037,4.2183,4.2199,4.201,4.2009,4.2007,0,4.1608,4.1686,4.1757,4.1776,4.1816,4.1849,4.1867,4.1897,4.1927,4.1966,4.1985,4.203,4.2055,4.2091,4.2094,4.2059,4.218,4.2132,4.2186,4.2186,4.2211,4.2209,4.2364,4.2228,4.2228,4.2227,4.2227,0,4.1722,4.1785,4.1796,4.1839,4.191,4.1909,4.1979,4.1994,4.2021,4.2068,4.2053,4.2097,4.2099,4.2144,4.2147,4.2217,4.2228,4.2234,4.2234,4.2236,4.2235,4.2252,4.2245,4.2231,4.223,4.223,4.2229,0,4.1828,4.1837,4.1914,4.1946,4.1956,4.2006,4.2033,4.2075,4.2085,4.2145,4.2159,4.2174,4.2227,4.2234,4.2295,4.2298,4.2382,4.2374,4.2371,4.237,4.2424,4.2419,4.2594,4.2618,4.2466,4.2468,4.2469,0,4.19,4.1948,4.1986,4.2017,4.2037,4.2086,4.2117,4.2119,4.2152,4.2194,4.2232,4.2283,4.2325,4.2411,4.2427,4.2475,4.2468,4.2527,4.2475,4.2476,4.247,4.2467,4.2473,4.2536,4.2538,4.2539,4.2541,0,4.2028,4.2031,4.2076,4.2123,4.216,4.2197,4.2232,4.2258,4.2265,4.2303,4.2357,4.239,4.2454,4.2506,4.2553,4.2572,4.2558,4.2557,4.2572,4.2574,4.257,4.2574,4.2399,4.2553,4.2551,4.255,4.255,4.2549,4.2119,4.2162,4.2196,4.2247,4.2274,4.2308,4.235,4.2366,4.2411,4.2464,4.2463,4.2523,4.2557,4.262,4.2642,4.269,4.2671,4.2692,4.2698,4.2703,4.2709,4.2563,4.2698,4.2698,4.2698,4.2697,4.2697,0,4.2247,4.2269,4.2316,4.2366,4.2407,4.2391,4.243,4.2465,4.2518,4.2552,4.2594,4.2657,4.2708,4.273,4.2781,4.2815,4.281,4.2828,4.2825,4.283,4.2723,4.2705,4.2831,4.2831,4.2831,4.2831,4.2831,4.2831,4.2318,4.239,4.2398,4.2483,4.2504,4.2564,4.2588,4.2619,4.2646,4.2718,4.2761,4.2775,4.2804,4.2857,4.2904,4.2909,4.2928,4.2949,4.2952,4.2851,4.2837,4.2824,4.2808,4.2954,4.2954,4.3055,4.3056,4.3057]},{"header":{"parameterUnit":"m.s-1","parameterCategory":1,"la1":30.2991,"la2":30.254,"lo1":-89.0895,"lo2":-89.0444,"dy":0.0017,"dx":0.0017,"nx":28,"ny":28,"refTime":"2023-11-21T09:00:00:Z","depth":0,"parameterNumber":3,"parameterNumberName":"V-component_of_WINDS"},"data":[0,0,0,0,0,0,0,0,0,0,0,0,0,0,0,0,0,0,0,0,0,0,0,0,0,0,0,0,0,0,0,0,0,0,0,0,0,0,0,0,0,0,0,0,0,0,0,0,0,0,0,0,0,0,0,0,0,0,-6.0805,-6.0807,0,-6.0937,-6.0938,-6.094,-6.0901,-6.0898,-6.0896,-6.0893,-6.1025,-6.103,-6.1036,0,0,0,0,0,0,0,0,0,0,0,0,0,-6.0519,-6.0524,-6.0805,-6.0807,-6.0808,-6.0936,-6.0938,-6.094,-6.0902,-6.0898,-6.0895,-6.0892,-6.1023,-6.103,-6.1037,0,0,0,0,0,0,0,0,0,0,0,0,0,-6.0646,-6.0526,-6.0805,-6.0805,-6.0806,-6.0936,-6.0938,-6.094,-6.0902,-6.0898,-6.0894,-6.089,-6.102,-6.1029,-6.1038,-6.1175,0,0,-6.1065,-6.1069,0,0,0,0,0,0,0,0,-6.0639,-6.0656,-6.0803,-6.0805,-6.0807,-6.0898,-6.0885,-6.1019,-6.0903,-6.0866,-6.0893,-6.0888,-6.0986,-6.0997,-6.1031,-6.1181,-6.1187,-6.1066,-6.1072,-6.1076,-6.1078,0,0,0,0,0,0,0,-6.063,-6.065,-6.0857,-6.0805,-6.0807,-6.0797,-6.0811,-6.091,-6.0947,-6.0869,-6.0866,-6.0882,-6.0986,-6.1022,-6.1034,-6.1189,-6.1066,-6.1074,-6.108,-6.1083,-6.1459,-6.1463,0,0,0,0,0,0,-6.062,-6.0643,-6.0853,-6.0861,-6.0711,-6.0806,-6.0821,-6.0873,-6.0946,-6.0953,-6.0886,-6.088,-6.1009,-6.1023,-6.1038,-6.1204,-6.1076,-6.1084,-6.1089,-6.1455,-6.146,-6.1465,0,0,0,0,0,0,-6.0614,-6.0639,-6.0847,-6.0752,-6.0777,-6.0815,-6.0874,-6.0878,-6.0914,-6.0959,-6.0964,-6.0916,-6.1006,-6.1025,-6.1142,-6.1208,-6.1088,-6.1096,-6.1449,-6.1456,-6.1463,-6.1537,0,0,0,0,0,0,-6.0606,-6.0637,-6.069,-6.0753,-6.0783,-6.095,-6.0878,-6.0883,-6.093,-6.0924,-6.0989,-6.0996,-6.1004,-6.1128,-6.1151,-6.1218,-6.1103,-6.1443,-6.1452,-6.146,-6.1529,-6.1545,-6.156,0,0,0,0,0,-6.0596,-6.0705,-6.0693,-6.0719,-6.085,-6.0954,-6.0971,-6.0979,-6.0936,-6.0989,-6.1018,-6.0994,-6.1197,-6.1141,-6.1165,-6.1237,-6.1439,-6.145,-6.146,-6.1522,-6.1542,-6.1559,0,0,0,0,0,0,-6.0647,-6.0713,-6.0701,-6.0833,-6.0889,-6.0947,-6.1015,-6.1001,-6.1068,-6.106,-6.1066,-6.1081,-6.1201,-6.123,-6.1166,-6.1374,-6.1312,-6.1327,-6.135,-6.137,-6.1385,-6.1376,-6.1111,0,0,0,0,0,-6.0675,-6.0754,-6.0807,-6.0919,-6.0948,-6.0977,-6.1022,-6.1024,-6.1081,-6.1104,-6.1141,-6.1196,-6.1273,-6.1323,-6.1396,-6.1533,-6.1546,-6.1594,-6.1609,-6.1622,-6.1635,-6.1711,-6.1733,-6.1499,-6.1499,-6.1498,0,0,-6.0731,-6.0777,-6.0826,-6.0931,-6.0974,-6.1056,-6.0996,-6.1085,-6.1146,-6.1117,-6.123,-6.1259,-6.1321,-6.1449,-6.1507,-6.1477,-6.1703,-6.1635,-6.1645,-6.1652,-6.1724,-6.1746,-6.1765,-6.1506,-6.1504,-6.1503,0,0,-6.0875,-6.0918,-6.1017,-6.1061,-6.1127,-6.1146,-6.117,-6.1231,-6.125,-6.1364,-6.1344,-6.1416,-6.1547,-6.1593,-6.1633,-6.1796,-6.1777,-6.182,-6.1901,-6.1974,-6.1993,-6.2009,-6.2068,-6.2089,-6.1833,-6.1833,-6.1833,0,-6.0937,-6.106,-6.1069,-6.116,-6.1207,-6.1186,-6.1285,-6.1328,-6.1414,-6.1446,-6.1412,-6.1578,-6.1618,-6.1756,-6.1796,-6.1829,-6.1856,-6.1812,-6.1989,-6.2006,-6.2021,-6.2077,-6.2099,-6.1838,-6.1837,-6.1837,-6.1836,0,-6.1133,-6.1219,-6.129,-6.1376,-6.143,-6.1525,-6.1548,-6.1602,-6.16,-6.1622,-6.1738,-6.1786,-6.1868,-6.1901,-6.1899,-6.204,-6.2019,-6.1987,-6.1925,-6.2048,-6.2101,-6.2123,-6.1845,-6.1843,-6.1842,-6.184,0,0,-6.1313,-6.1403,-6.1429,-6.1468,-6.154,-6.1606,-6.17,-6.1783,-6.1829,-6.1889,-6.1968,-6.2081,-6.2052,-6.2098,-6.2101,-6.2165,-6.2292,-6.2125,-6.2127,-6.2155,-6.2451,-6.2475,-6.2499,-6.228,-6.2284,-6.2287,-6.2446,0,-6.1464,-6.1631,-6.1642,-6.1792,-6.1872,-6.1854,-6.1936,-6.1989,-6.2012,-6.2083,-6.2108,-6.2188,-6.2144,-6.2172,-6.2234,-6.2264,-6.2352,-6.2252,-6.2353,-6.2357,-6.2339,-6.2527,-6.2552,-6.27,-6.2466,-6.247,-6.2472,0,-6.1663,-6.1731,-6.189,-6.1952,-6.1986,-6.2059,-6.2136,-6.2204,-6.2263,-6.2276,-6.2328,-6.2322,-6.2418,-6.2353,-6.2485,-6.2417,-6.2459,-6.248,-6.2486,-6.2496,-6.2422,-6.2542,-6.2747,-6.2769,-6.2505,-6.2502,-6.25,0,-6.1779,-6.191,-6.2023,-6.2056,-6.2131,-6.2184,-6.2217,-6.2273,-6.2322,-6.2388,-6.242,-6.2496,-6.2538,-6.2597,-6.2612,-6.2563,-6.2745,-6.268,-6.2758,-6.2757,-6.2797,-6.2794,-6.3011,-6.2823,-6.2823,-6.2822,-6.2822,0,-6.1947,-6.2045,-6.2076,-6.2145,-6.2255,-6.2266,-6.2374,-6.2404,-6.2454,-6.2528,-6.2516,-6.2586,-6.2601,-6.2674,-6.2686,-6.2794,-6.2813,-6.2825,-6.2827,-6.2827,-6.2825,-6.2854,-6.2845,-6.2828,-6.2827,-6.2826,-6.2825,0,-6.2095,-6.212,-6.2241,-6.2303,-6.2321,-6.2399,-6.2451,-6.2517,-6.2539,-6.2634,-6.2656,-6.2691,-6.2776,-6.2797,-6.2898,-6.2906,-6.3034,-6.3026,-6.3015,-6.3014,-6.3091,-6.3084,-6.3334,-6.3368,-6.3158,-6.316,-6.3161,0,-6.2201,-6.2276,-6.2346,-6.2396,-6.2432,-6.2512,-6.2562,-6.2576,-6.2629,-6.2703,-6.276,-6.2844,-6.2912,-6.3049,-6.3083,-6.316,-6.3154,-6.3237,-6.3166,-6.3163,-6.3156,-6.3152,-6.316,-6.3251,-6.3253,-6.3255,-6.3256,0,-6.2386,-6.2395,-6.2468,-6.2547,-6.2608,-6.267,-6.2729,-6.277,-6.2792,-6.2852,-6.294,-6.2993,-6.3097,-6.3181,-6.3259,-6.3292,-6.3278,-6.3278,-6.33,-6.3301,-6.3291,-6.3298,-6.3052,-6.3272,-6.3271,-6.327,-6.3269,-6.3268,-6.2517,-6.2583,-6.2643,-6.2726,-6.2772,-6.2828,-6.2894,-6.2925,-6.2999,-6.3086,-6.3089,-6.3185,-6.3243,-6.3347,-6.3385,-6.3459,-6.3434,-6.3466,-6.3474,-6.3482,-6.3489,-6.3279,-6.3473,-6.3473,-6.3472,-6.3472,-6.3472,0,-6.2702,-6.274,-6.2816,-6.29,-6.2965,-6.2948,-6.3012,-6.3068,-6.3153,-6.3208,-6.3276,-6.3377,-6.3459,-6.3499,-6.358,-6.3632,-6.3627,-6.3652,-6.3649,-6.3657,-6.3506,-6.348,-6.3655,-6.3655,-6.3655,-6.3654,-6.3654,-6.3654,-6.2806,-6.2918,-6.2934,-6.3069,-6.3106,-6.32,-6.3239,-6.3291,-6.3336,-6.345,-6.3518,-6.3544,-6.3594,-6.3678,-6.3752,-6.3762,-6.3792,-6.3821,-6.3827,-6.3686,-6.3667,-6.3649,-6.3624,-6.3827,-6.3827,-6.3971,-6.3973,-6.3974]}]]